DELTA 1 DEB *, 18591

Orbit data source: Space-Track

DELTA 1 DEB *, 18591 is space debris in LEO originally from a launch on Thu, 29 Jul 1976 UTC launched from the Air Force Western Test Range (AFWTR). Debris objects in space refer to the collection of defunct objects orbiting the Earth. Examples of debris include non-operational satellites, rocket bodies, and fragments generated from explosions, collisions, or faulty payload assembly.

Loading next visibility...
Identifier
18591, 1976-077FD
Orbit
LEO
Country
Flag of USUS
Related business
Manufacturer
Unknown
Mission
Spacecraft
Bus & Motor
Unknown
Mass
Unknown
Launch date (UTC)
1976-07-29 (50 years ago)
Launch vehicle
Unknown
Launch site
Air Force Western Test Range (AFWTR)
Object type
Payload
Rocket body
Debris
Shape & HBR
Unknown shape, 1.1 m
Radar Cross Section
Medium (>0.1 m² and <1 m²)

Expand to show TLE details & history
Last TLE update: 4 days ago

TLE from 4 days ago
0 DELTA 1 DEB *
1 18591U 76077FD  26115.62483272  .00003671  00000-0  81341-1 0  9995
2 18591 101.0113 160.8028 1095202 238.0343 289.0126 10.59190265586229
Epoch: 2026-04-25T14:59Z
TLE epoch observation values (Epoch: 2026-04-25T14:59:45.547Z)
Latitude
24.80166°
Longitude
-92.6422°
Altitude
2,168.582 km
Speed
6.915 km/s
True Right ascension
23h 03m 45s
True Declination
24° 41' 33"
Sunlit
Object was in daylight at epoch
Visualization orbit readout
Latitude
Unknown
Longitude
Unknown
Altitude
Unknown
Speed
Unknown
Apparent Right ascension
Unknown
Apparent Declination
Unknown
Sunlit
N/A
Visualization observer readout
Local Sidereal Time
15:31:00
Azimuth
Unknown
Elevation
Unknown
Doppler factor
Unknown
Orbital elements
Apogee altitude
3,336.836 km
Perigee altitude
1,418.916 km
Semi-major axis
8,756.013 km
Eccentricity
0.10952
Inclination
101.0113°
RAAN
160.8028°
Arg. of periapsis
238.0343°
True anomaly
276.69053°
Mean anomaly
289.0126°
Eccentric anomaly
282.89583°
Mean motion
2.64901 °/min
Orbital period
135.9 mins
BSTAR
0.081341
Loading maneuver chart data...
Computing Atmospheric mass density...
Loading historical data...
Loading historical data...
Loading historical data...
Loading historical data...
Loading historical data...
Loading historical data...
Loading historical data...

Documentation

Showing up to 5 results
|